Hurlburt Field, FL

3:40 PM CST on January 21, 2018 (GMT -0600)
Hurlburt

Weather History for KHRT - July, 2013

Change the Weather History Date:

Thursday, July 18, 2013

  Actual Average Record
Temperature  
Mean Temperature 80 °F -  
Max Temperature 88 °F 87 °F 98 °F (2000)
Min Temperature 73 °F 73 °F 68 °F (2014)
Cooling Degree Days 15    
Growing Degree Days 30 (Base 50)    
Moisture  
Dew Point 70 °F    
Average Humidity 71    
Maximum Humidity 86    
Minimum Humidity 52    
Precipitation  
Precipitation 0.00 in - - ()
Sea Level Pressure  
Sea Level Pressure 30.09 in    
Wind  
Wind Speed 6 mph (ENE)    
Max Wind Speed 13 mph    
Max Gust Speed -    
Visibility 10 miles    
Events Rain , Thunderstorm    
Averages and records for this station are not official NWS values.
T = Trace of Precipitation, MM = Missing Value Source: NWS Daily Summary

Daily Weather History Graph

Daily Weather History Graph

Search for Another Location

Airport or City:

Trip Planner

Search our weather history database for the weather conditions in past years. The results will help you decide how hot, cold, wet, or windy it might be!

Date:

Astronomy

Jul. 18, 2013 Rise Set
Actual Time 5:56 AM CDT 7:48 PM CDT
Civil Twilight 5:29 AM CDT 8:15 PM CDT
Nautical Twilight 4:57 AM CDT 8:48 PM CDT
Astronomical Twilight 4:23 AM CDT 9:22 PM CDT
Moon 3:47 PM CDT (7/18) 1:42 AM CDT (7/18)
Length of Visible Light 14h 45m
Length of Day
13h 52m
Waxing Gibbous, 77% of the Moon is Illuminated
Jul 18
Waxing Gibbous
Jul 22
Full
Jul 29
Last Quarter
Aug 6
New
Aug 14
First Quarter

Hourly Weather History & Observations

Time (CDT) Temp. Heat Index Dew Point Humidity Pressure Visibility Wind Dir Wind Speed Gust Speed Precip Events Conditions
12:58 AM 77.9 °F - 73.4 °F 86% 30.14 in 10.0 mi North 9.2 mph - N/A   Scattered Clouds
1:58 AM 76.8 °F - 70.9 °F 82% 30.11 in 10.0 mi NE 5.8 mph - N/A   Clear
2:58 AM 75.7 °F - 69.8 °F 82% 30.10 in 10.0 mi NE 4.6 mph - N/A   Clear
3:58 AM 74.3 °F - 69.6 °F 85% 30.08 in 10.0 mi NNE 4.6 mph - N/A   Clear
4:58 AM 73.6 °F - 68.9 °F 85% 30.10 in 10.0 mi North 3.5 mph - N/A   Clear
5:58 AM 73.2 °F - 68.2 °F 84% 30.11 in 10.0 mi North 6.9 mph - N/A   Overcast
6:14 AM 73.4 °F - 68.0 °F 83% 30.10 in 10.0 mi NNE 5.8 mph - N/A Rain Light Rain
6:19 AM 73.4 °F - 68.0 °F 83% 30.09 in 10.0 mi NNE 5.8 mph - N/A   Mostly Cloudy
6:31 AM 73.4 °F - 68.0 °F 83% 30.09 in 10.0 mi NNE 6.9 mph - N/A Rain Light Rain
6:39 AM 73.4 °F - 68.0 °F 83% 30.10 in 10.0 mi NE 5.8 mph - N/A   Scattered Clouds
6:58 AM 73.0 °F - 68.0 °F 84% 30.12 in 10.0 mi North 5.8 mph - 0.00 in   Clear
7:58 AM 74.5 °F - 68.5 °F 82% 30.13 in 10.0 mi NE 4.6 mph - N/A   Clear
8:25 AM 77.0 °F - 69.8 °F 78% 30.12 in 10.0 mi NE 4.6 mph - N/A Rain Light Rain
8:43 AM 80.6 °F 83.9 °F 69.8 °F 70% 30.12 in 10.0 mi NE 8.1 mph - N/A   Clear
8:55 AM 80.6 °F 83.9 °F 69.8 °F 70% 30.12 in 10.0 mi ENE 8.1 mph - N/A   Clear
9:55 AM 84.2 °F 89.6 °F 71.6 °F 66% 30.12 in 10.0 mi Variable 3.5 mph - N/A   Clear
10:39 AM 86.0 °F 91.8 °F 71.6 °F 62% 30.13 in 10.0 mi Variable 3.5 mph - N/A   Light Drizzle
10:48 AM 86.0 °F 91.8 °F 71.6 °F 62% 30.13 in 10.0 mi SSE 6.9 mph - N/A   Clear
10:55 AM 86.0 °F 91.8 °F 71.6 °F 62% 30.13 in 10.0 mi SE 9.2 mph - N/A   Clear
11:55 AM 86.0 °F 93.4 °F 73.4 °F 66% 30.12 in 10.0 mi SSE 8.1 mph - N/A   Clear
12:58 PM 85.3 °F 93.4 °F 74.3 °F 70% 30.11 in 10.0 mi South 12.7 mph - N/A   Scattered Clouds
1:58 PM 85.8 °F 93.8 °F 74.3 °F 68% 30.09 in 10.0 mi South 8.1 mph - N/A Thunderstorm Partly Cloudy
2:19 PM 86.0 °F 93.4 °F 73.4 °F 66% 30.08 in 10.0 mi Variable 5.8 mph - N/A Thunderstorm Thunderstorm
2:34 PM 82.4 °F 84.6 °F 66.2 °F 58% 30.09 in 10.0 mi NNW 11.5 mph - N/A Thunderstorm Mostly Cloudy
2:58 PM 82.0 °F 84.7 °F 67.3 °F 61% 30.08 in 10.0 mi NW 4.6 mph - N/A   Mostly Cloudy
3:26 PM 86.0 °F 90.4 °F 69.8 °F 58% 30.06 in 10.0 mi Variable 2.3 mph - N/A   Light Drizzle
3:39 PM 86.0 °F 90.4 °F 69.8 °F 58% 30.05 in 10.0 mi Variable 1.2 mph - N/A   Partly Cloudy
3:58 PM 87.1 °F 90.2 °F 67.3 °F 52% 30.05 in 10.0 mi WNW 1.2 mph - 0.00 in   Partly Cloudy
4:29 PM 86.0 °F 89.4 °F 68.0 °F 55% 30.05 in 10.0 mi NNE 5.8 mph - N/A Rain Light Rain
4:39 PM 86.0 °F 89.4 °F 68.0 °F 55% 30.05 in 10.0 mi NNW 5.8 mph - N/A   Clear
4:58 PM 86.7 °F 90.3 °F 68.2 °F 54% 30.05 in 10.0 mi NNE 3.5 mph - 0.00 in   Partly Cloudy
5:58 PM 85.5 °F 89.8 °F 69.8 °F 59% 30.02 in 10.0 mi South 10.4 mph - N/A   Clear
6:58 PM 83.7 °F 88.6 °F 71.1 °F 66% 30.04 in 10.0 mi SE 8.1 mph - N/A   Clear
7:01 PM 84.2 °F 89.6 °F 71.6 °F 66% 30.03 in 10.0 mi SSE 6.9 mph - N/A Rain Light Rain
7:10 PM 84.2 °F 89.6 °F 71.6 °F 66% 30.03 in 10.0 mi SE 6.9 mph - N/A   Clear
7:58 PM 82.6 °F 87.1 °F 70.9 °F 68% 30.05 in 10.0 mi SSE 5.8 mph - 0.00 in   Clear
8:33 PM 82.4 °F 87.2 °F 71.6 °F 70% 30.06 in 10.0 mi South 9.2 mph - N/A   Mostly Cloudy
8:38 PM 82.4 °F 87.2 °F 71.6 °F 70% 30.06 in 10.0 mi South 8.1 mph - N/A   Mostly Cloudy
8:58 PM 82.2 °F 86.9 °F 71.6 °F 70% 30.07 in 10.0 mi South 6.9 mph - N/A   Scattered Clouds
9:28 PM 82.4 °F 87.2 °F 71.6 °F 70% 30.07 in 10.0 mi Variable 2.3 mph - N/A   Mostly Cloudy
9:33 PM 82.4 °F 88.2 °F 73.4 °F 74% 30.08 in 10.0 mi Calm Calm - N/A   Scattered Clouds
9:58 PM 81.7 °F 86.5 °F 72.3 °F 73% 30.08 in 10.0 mi SSE 4.6 mph - N/A   Clear
10:09 PM 82.4 °F 87.2 °F 71.6 °F 70% 30.09 in 10.0 mi SSE 4.6 mph - N/A Rain Light Rain
10:14 PM 82.4 °F 88.2 °F 73.4 °F 74% 30.09 in 10.0 mi SE 3.5 mph - N/A   Light Drizzle
10:19 PM 82.4 °F 88.2 °F 73.4 °F 74% 30.09 in 10.0 mi SE 3.5 mph - N/A   Scattered Clouds
10:58 PM 77.2 °F - 71.2 °F 82% 30.09 in 10.0 mi North 3.5 mph - 0.00 in   Partly Cloudy
11:53 PM 75.2 °F - 69.8 °F 83% 30.08 in 10.0 mi North 5.8 mph - N/A   Mostly Cloudy
11:58 PM 75.6 °F - 70.2 °F 83% 30.08 in 10.0 mi NNW 4.6 mph - N/A   Mostly Cloudy